Address 0x184b8165e747817551eac977cf93d7dd4cbe18c4 5

 
Txn Hash Method
Block
From
To
Value [Txn Fee]
0x8e334a31f38f799ce155161f9b48d65b60cf0bba41446406ab2ec4cef541273cDeposit50094162022-01-25 5:47:584 hrs 48 mins ago0x184b8165e747817551eac977cf93d7dd4cbe18c4OUT 0xf4d73326c13a4fc5fd7a064217e12780e9bd62c30 ETH0.000850651347 ETH
0x3c58692bcac90971d1fd06e84f7dfda75f1af65b9bec556ce77268a17867a6abAdd Liquidity50094102022-01-25 5:47:074 hrs 49 mins ago0x184b8165e747817551eac977cf93d7dd4cbe18c4OUT SushiSwap: Router0 ETH0.000938644643 ETH
0x4e774c27636842012900eedc7adacf2c08cd1b6fe1943428e6f1fcdd1f0b919cSwap Exact Token...50093932022-01-25 5:47:074 hrs 49 mins ago0x184b8165e747817551eac977cf93d7dd4cbe18c4OUT SushiSwap: Router0 ETH0.000902683777 ETH
0xa369384784092ceabd14ae9dea5986639a65a7759659cc4a86100960cdf5ad92Approve50093782022-01-25 5:46:274 hrs 50 mins ago0x184b8165e747817551eac977cf93d7dd4cbe18c4OUT 0xfd086bc7cd5c481dcc9c85ebe478a1c0b69fcbb90 ETH0.000683909766 ETH
0xb406c43fee2ecbde560497e75b38e7ece03279e0772c842cfc5c52d7a4a8f0d4Embark On Pilgri...50091022022-01-25 5:36:374 hrs 59 mins ago0x184b8165e747817551eac977cf93d7dd4cbe18c4OUT 0xd661a18e824c8d2edf3badf75aedda5b7d1424480 ETH0.00124543333 ETH
0xde55bd8df1dbff2cca8095ba3f9b8a9c90663c606030088f2fbbc21f3d2c8665Embark On Pilgri...50090812022-01-25 5:35:265 hrs 1 min ago0x184b8165e747817551eac977cf93d7dd4cbe18c4OUT 0xd661a18e824c8d2edf3badf75aedda5b7d1424480 ETH0.001245406009 ETH
0xc71b7ffba628364e63cf0cff0b189815336c72701a29d47f80f35d645bc6b00cEmbark On Pilgri...50090532022-01-25 5:35:005 hrs 1 min ago0x184b8165e747817551eac977cf93d7dd4cbe18c4OUT 0xd661a18e824c8d2edf3badf75aedda5b7d1424480 ETH0.001320354554 ETH
0x40f5d8a7c0135949a823e1e15cc78b83c8763fe52a04992bd141a1a2f24991eeSet Approval For...50090522022-01-25 5:35:005 hrs 1 min ago0x184b8165e747817551eac977cf93d7dd4cbe18c4OUT Treasure DAO: Legions (Genesis)0 ETH0.00057522448 ETH
0xe258b5b2c921b02781e08289f5e41ff936400db102648c44806fb9e58162ec01Set Approval For...50090372022-01-25 5:33:255 hrs 3 mins ago0x184b8165e747817551eac977cf93d7dd4cbe18c4OUT Treasure DAO: Legions (Genesis)0 ETH0.000635375264 ETH
0x737ee7cd9405ae4e7deb9e8f06ac2334edc3ef35fc05caa90d615ddaa9e03211Cancel Listing49284392022-01-23 9:25:472 days 1 hr ago0x184b8165e747817551eac977cf93d7dd4cbe18c4OUT Treasure DAO: Marketplace0 ETH0.000666680749 ETH
0xf03b0f493db82a126f511f30a7a0761ae624b1b5bd3ff9b28b471f604a6e806dSet Approval For...49233832022-01-23 4:44:332 days 5 hrs ago0x184b8165e747817551eac977cf93d7dd4cbe18c4OUT Smolverse: Smol Brains0 ETH0.000693692146 ETH
0xd61475fedaf0e9cac86670672ad080e30f9a043d0e5102d46c551ed70120a2cfCreate Listing49233762022-01-23 4:43:362 days 5 hrs ago0x184b8165e747817551eac977cf93d7dd4cbe18c4OUT Treasure DAO: Marketplace0 ETH0.001009305819 ETH
0xca1cb2b312453f50a5908618c68a54f6b7d36d29e792e108bb7349aaa0e664d3Buy Item48084082022-01-20 2:07:335 days 8 hrs ago0x184b8165e747817551eac977cf93d7dd4cbe18c4OUT Treasure DAO: Marketplace0 ETH0.001264676901 ETH
0x661b16f95301d3860d9863e0c95ee9a0be1c7f0ab3788eaaa2b4aa13178cb516Cancel Listing48082722022-01-20 2:02:525 days 8 hrs ago0x184b8165e747817551eac977cf93d7dd4cbe18c4OUT Treasure DAO: Marketplace0 ETH0.000879093324 ETH
0xc7f66d7f7b64cb0b9739dbdb717e063c8350b4c2475e3cdf2b14d4c26a17ab98Join47955952022-01-19 16:36:195 days 18 hrs ago0x184b8165e747817551eac977cf93d7dd4cbe18c4OUT Smolverse: School/Staking0 ETH0.000847250441 ETH
0x32772fabd53742030074f6214f497a3ec185e9b11ef4efd588d5ca471ecf27a7Buy Item47955702022-01-19 16:35:285 days 18 hrs ago0x184b8165e747817551eac977cf93d7dd4cbe18c4OUT Treasure DAO: Marketplace0 ETH0.001205845698 ETH
0x9b996a6fd18be2ef4d09dacbba0e83a044c42517db7d06d6463fb4b0de87bf60Buy Item47189032022-01-17 4:03:308 days 6 hrs ago0x184b8165e747817551eac977cf93d7dd4cbe18c4OUT Treasure DAO: Marketplace0 ETH0.001902454369 ETH
0x1d324a5eeaabf88e22b86dc06916696e312c41823a096fd932eb3a3acf55811eApprove47188912022-01-17 4:03:308 days 6 hrs ago0x184b8165e747817551eac977cf93d7dd4cbe18c4OUTTreasure DAO: Magic Token0 ETH0.001039520313 ETH
0xb687470ebc647c01e312b657e1889aedf66a67bb85e88479385daf2a2e9ca68dBoard47188072022-01-17 4:00:578 days 6 hrs ago0x184b8165e747817551eac977cf93d7dd4cbe18c4OUT 0x8957a18a77451d762de204b61ea4f858bb3bed4d0 ETH0.001045925202 ETH
0xe8a73fc6e75665ddc967b08ac93c28dbb423a3ac09e035fe4b0235ba087e749dUpdate Listing47032582022-01-16 17:05:508 days 17 hrs ago0x184b8165e747817551eac977cf93d7dd4cbe18c4OUT Treasure DAO: Marketplace0 ETH0.000969676155 ETH
0x1a5c8522547716d4524f686a85b71108f7db5bf078f80d5d3818ecde7f498695Update Listing47017392022-01-16 16:20:068 days 18 hrs ago0x184b8165e747817551eac977cf93d7dd4cbe18c4OUT Treasure DAO: Marketplace0 ETH0.000967937873 ETH
0x74471d72f439ced9cec876449687d02d9158d127a36a5604120e09710e0da18aCreate Listing47015452022-01-16 16:12:398 days 18 hrs ago0x184b8165e747817551eac977cf93d7dd4cbe18c4OUT Treasure DAO: Marketplace0 ETH0.001360871973 ETH
0x726c80d238134ab2ab1695ba526000607fc8b716a1b64777d7c5bb53739d2fb6Safe Transfer Fr...46899412022-01-16 7:54:219 days 2 hrs ago0x184b8165e747817551eac977cf93d7dd4cbe18c4OUT 0x17dacad7975960833f374622fad08b90ed67d1b50 ETH0.001365993597 ETH
0xd6c32350cacd1ce45690fbb25a8a0a5c3ec27b4a297d9408a16609e5c691bb3cDrop46899272022-01-16 7:54:219 days 2 hrs ago0x184b8165e747817551eac977cf93d7dd4cbe18c4OUT 0x66299ecc614b7a1920922bba7527819c841174bd0 ETH0.000962611146 ETH
0x6dfd5d5f60a04c596450bef67017a346ddd3ef867393f1daabd77e295c73a3f9Update Listing46898842022-01-16 7:52:289 days 2 hrs ago0x184b8165e747817551eac977cf93d7dd4cbe18c4OUT Treasure DAO: Marketplace0 ETH0.001109486929 ETH
[ Download CSV Export 
Parent Txn Hash Block From To Value
Loading

Contract Name:
0 ETH

Compiler Version
0

Optimization Enabled:
0 ETH

Other Settings:
-NA-
Block Transaction Gas Used Reward
Age Block Fee Address BC Fee Address Voting Power Jailed Incoming
Block Uncle Number Difficulty Gas Used Reward
Loading
Loading
Make sure to use the "Vote Down" button for any spammy posts, and the "Vote Up" for interesting conversations.